Regional Weather Roundup
Issued by NWS

Current Version | Previous Version | Text Only | Print | Product List | Glossary On
Versions: 1 2 3 4 5 6 7 8 9 10 11 12 13 14 15 16 17 18 19 20 21 22 23 24 25 26 27 28 29 30 31 32 33 34 35 36 37 38 39 40 41 42 43 44 45 46 47 48 49 50
000
ASUS44 KFWD 161915
RWRTX
NORTH TEXAS HOURLY WEATHER ROUNDUP
NATIONAL WEATHER SERVICE FORT WORTH TX
200 PM CDT WED APR 16 2014

NOTE: "FAIR" INDICATES FEW OR NO CLOUDS BELOW 12,000 FEET WITH NO
SIGNIFICANT WEATHER AND/OR OBSTRUCTIONS TO VISIBILITY.

TXZ118-119-162000-
DALLAS/FORT WORTH METROPLEX

CITY           SKY/WX    TMP DP  RH WIND       PRES   REMARKS
DFW AIRPORT    PTSUNNY   65  33  30 SE26G33   30.03F
DALLAS LOVE    PTSUNNY   64  33  31 S18G26    30.04F
FTW MEACHAM    MOSUNNY   66  35  31 S22G30    30.01F
DAL-EXECUTIVE  MOSUNNY   66  36  32 S14G31    30.03F
FTW-ALLIANCE   MOSUNNY   63  36  36 S20G28    30.01F
FTW-NAS-JRB    PTSUNNY   68  30  24 S22G29    30.05F
FTW-SPINKS     SUNNY     64  34  32 S17G26    30.04F
ARLINGTON      PTSUNNY   66  35  31 SE23G31   30.02F
GRAND PRAIRIE  SUNNY     64  34  32 SE14G24   30.06F
MESQUITE       SUNNY     63  36  36 SE18G24   30.07F
LANCASTER      MOSUNNY   63  34  34 S15G24    30.06F
$$

TXZ091>094-102>105-117-120-121-131>134-162000-
NORTH CENTRAL TEXAS

CITY           SKY/WX    TMP DP  RH WIND       PRES   REMARKS
SHRMAN/DENISON PTSUNNY   61  29  30 S22G30    30.04F
GAINESVILLE    MOSUNNY   62  35  35 SE18      30.02F
BOWIE          SUNNY     65  31  28 SE18G31   29.96F
BRIDGEPORT     SUNNY     65  29  25 S14G24    30.00F
DECATUR        SUNNY     63  31  29 S20G29    30.00F
DENTON         MOSUNNY   64  33  31 S20G31    30.02F
MCKINNEY       PTSUNNY   63  36  36 SE23G31   30.04F
GREENVILLE     MOSUNNY   61  32  33 SE20      30.07F
ROCKWALL       MOSUNNY   65  36  34 SE16G29   30.05F
TERRELL        MOSUNNY   61  33  35 S17G29    30.07F
WAXAHACHIE     PTSUNNY   64  34  33 SE16G26   30.05F
CLEBURNE       MOSUNNY   64  36  34 S18G25    30.03F
GRANBURY       SUNNY     67  32  27 S18G28    30.02R
$$

TXZ083>090-098>101-113>116-127>130-139>142-154-155-162000-
WESTERN NORTH TEXAS

CITY           SKY/WX    TMP DP  RH WIND       PRES   REMARKS
WICHITA FALLS  MOSUNNY   68  27  21 S20G37    29.91F
WF-KICKAPOO    SUNNY     68  26  20 S18G31    29.92F
VERNON         SUNNY     72  22  15 S21G30    29.88F
ABILENE        SUNNY     69  29  22 S25G33    29.89F
ABILENE-DYESS  MOSUNNY   69  28  21 S25G32    29.89F
BRECKENRIDGE   SUNNY     71  26  18 S16G26    29.93F
GRAHAM         SUNNY     69  28  21 S15G24    29.93F
MINERAL WELLS  SUNNY     67  29  24 SE21G29   29.98F
STEPHENVILLE   MOSUNNY   65  31  28 S15G26    30.00F
COMANCHE       MOSUNNY   65  31  27 S21G30    29.98F
BROWNWOOD      MOSUNNY   68  32  26 S18G28    29.96F
COLEMAN        MOSUNNY   67  32  26 S18G24    29.95F
BRADY            N/A     68  34  28 SE14      29.95F
$$

TXZ143>147-156>162-174-175-162000-
CENTRAL TEXAS

CITY           SKY/WX    TMP DP  RH WIND       PRES   REMARKS
WACO           MOSUNNY   66  42  41 SE17G28   30.04F
WACO-MCGREGOR  MOSUNNY   64  39  39 S20G26    30.06F
HILLSBORO      MOSUNNY   65  39  38 S21G26    30.03F
CORSICANA      MOSUNNY   65  38  36 S20       30.08F
MEXIA          SUNNY     63  42  46 S14G20    30.06F
HEARNE         MOSUNNY   66  44  45 SE16G22   30.08F
CAMERON        MOSUNNY   67  44  42 S14G22    30.06F
TEMPLE           N/A     66  39  37 SE24        N/A
KILLEEN        MOSUNNY   64  39  39 SE22G30   30.01F
KILLEEN-SKYLRK SUNNY     66  39  37 S18G24    30.03F
GATESVILLE     SUNNY     64  37  36 S14G24    30.04F
HAMILTON       SUNNY     65  35  33 S22G29    30.00F
LAMPASAS       SUNNY     65  37  36 S13G18    30.00F
$$

TXZ095>097-106>112-122>126-135>138-148>153-164>167-162000-
EAST TEXAS

CITY           SKY/WX    TMP DP  RH WIND       PRES   REMARKS
PARIS          PTSUNNY   61  36  39 S20       30.10F
SULPHUR SPRNGS PTSUNNY   62  31  31 S20       30.11F
CLARKSVILLE    PTSUNNY   62  31  31 SE15G22   30.11F
MOUNT PLEASANT PTSUNNY   61  33  35 SE13      30.13F
GILMER         PTSUNNY   61  34  36 SE13G20   30.13F
MINEOLA        PTSUNNY   63  32  31 SE10      30.11F
TYLER          PTSUNNY   62  34  35 SE13G21   30.10F
LONGVIEW       PTSUNNY   61  33  35 SE13G20   30.12F
MARSHALL       PTSUNNY   60  27  28 S12       30.15F
ATHENS         PTSUNNY   61  32  33 S12G18    30.07F
PALESTINE      PTSUNNY   64  33  31 S12       30.12F
JACKSONVILLE   PTSUNNY   58  30  34 SE9       30.13F
HENDERSON      PTSUNNY   61  27  27 SE7       30.13F
NACOGDOCHES    PTSUNNY   61  34  36 S7G22     30.13F
LUFKIN         PTSUNNY   63  32  31 S9        30.12F
$$

SUPPLEMENTAL OBSERVATIONS (CENTRAL)

CITY           SKY/WX    TMP DP  RH WIND       PRES   REMARKS
LAKE TEXOMA      N/A     59  28  31 S15         N/A
CADDO GRASSLND   N/A     63  34  34 S14G23      N/A
PAT MAYSE LAKE   N/A     57  32  38 SE18        N/A
GREENVILLE       N/A     63  34  34 S13G22      N/A
CEDAR HILL       N/A     66  36  32 SE14G26     N/A
ATHENS           N/A     64  32  29 S14G22      N/A
LAKE LIMESTONE   N/A     64  43  45 S10         N/A
MCGREGOR         N/A     66  37  34 S18G26      N/A
$$

SUPPLEMENTAL OBSERVATIONS (WEST)

CITY           SKY/WX    TMP DP  RH WIND       PRES   REMARKS
MILLERS CREEK    N/A     72  28  20 S22G29      N/A
LBJ GRASSLAND    N/A     64  32  29 SE18G26     N/A
COMANCHE         N/A     66  32  28 S18G31      N/A
HAMBY            N/A     70  32  24 S20G31      N/A
IVIE RESERVOIR   N/A     72  30  21 S16G26      N/A
COLORADO BEND    N/A     66  36  32 S15G23      N/A
$$

SUPPLEMENTAL OBSERVATIONS (EAST)

CITY           SKY/WX    TMP DP  RH WIND       PRES   REMARKS
TEXARKANA        N/A     63  32  31 SE6G17      N/A
LINDEN           N/A     61  32  33 E7          N/A
CADDO LAKE       N/A     64  30  27 SW5         N/A
HENDERSON        N/A     61  30  31 S9G17       N/A
N SABINE NF      N/A     64  36  34 MISG        N/A
$$

SUPPLEMENTAL OBSERVATIONS ARE A COLLECTION OF AUTOMATED INSTRUMENTS
THAT ARE MAINTAINED BY A VARIETY OF FEDERAL AND STATE AGENCIES.
CERTAIN ELEMENTS...SUCH AS HUMIDITY VALUES AND SUSTAINED WIND
SPEEDS...MAY BE APPROXIMATED.




USA.gov is the U.S. government's official web portal to all federal, state and local government web resources and services.